Tracking 27382 objects as of 5-Jun-2023
HD Live streaming from Space Station
objects crossing your sky now

STARLINK-5928

Track STARLINK-5928 now!
10-day predictions
STARLINK-5928 is classified as:


NORAD ID: 55958
Int'l Code: 2023-037AW
Perigee: 363.9 km
Apogee: 368.7 km
Inclination: 70.0 °
Period: 91.7 minutes
Semi major axis: 6737 km
RCS: Unknown
Launch date: March 17, 2023
Source: United States (US)
Launch site: AIR FORCE WESTERN TEST RANGE (AFWTR)
Your satellite tracking list
Your tracking list is empty




NASA's NSSDC Master Catalog

Two Line Element Set (TLE):
1 55958U 23037AW  23155.79367943 -.00001385  00000-0 -97535-5 0  9994
2 55958  69.9975 318.8715 0003560 271.9848  88.0940 15.69916954 12934
Source of the keplerian elements: AFSPC